Starlink 32752

operational
NORAD ID: 62567 Int'l Des: 2025-006 Owner: SPXS Country: US Constellation: starlink
LEOCIRCULAR

Über Starlink 32752

Beschreibung wird geladen...

Live-Position

3D-Globus wird geladen...

Nächste Überflüge

Höhenverlauf

Altitude vs Time

uPlot chart will show altitude changes over time

Zweizeiliger Elementsatz

1 62567U 25006P 25302.34127899 .00050169 00000-0 18175-2 0 9999
2 62567 42.9979 314.4468 0000878 117.6947 242.3993 15.27630243 44773
Epoch: 29. Okt. 2025 • Age: 12 hours

Aktueller Status

Höhe 490.5 km
Geschwindigkeit 7.62 km/s
Subsatellitenpunkt -28.90°S, 173.02°W
Startdatum 10. Jan. 2025
Alter 0.7 years
Typ internet

Technische Details

Klassifizierung Payload
Masse 730.00 kg
Trockenmasse 700.00 kg
Gesamtmasse 730.00 kg
Länge 0.30 m
Durchmesser 4.10 m
Spannweite 29.00 m
Form Box + pan
Hersteller SPXS
Bus-Typ Starlink V2M
Phasenstatus In Orbit
Besitzer/Staat SPXS/US

Große Konstellationen

Loading constellations...